Regional Weather Roundup
Issued by NWS Spokane, WA

Home | Current Version | Previous Version | Text Only | Print | Product List | Glossary On
Versions: 1 2 3 4 5 6 7 8 9 10 11 12 13 14 15 16 17 18 19 20 21 22 23 24 25 26 27 28 29 30 31 32 33 34 35 36 37 38 39 40 41 42 43 44 45 46 47 48 49 50
825
NZUS01 KOTX 230125
RWROTX

Eastern Washington/Northern Idaho Roundup
National Weather Service, Spokane WA
600 PM PDT THU JUN 22 2017

Note: "fair" indicated few or no clouds below 12,000 feet with no
significant weather and/or obstructions to visibility.

...Northeast Washington and Northern Idaho Panhandle...

CITY           SKY/WX    TMP DP  RH WIND       PRES   REMARKS
Spokane Intl   MOSUNNY   75  28  17 NW5       30.19S
Spokane Downto SUNNY     76  33  21 N5        30.18S
Coeur d Alene  FAIR      72  35  25 S3        30.19F
Deer Park      SUNNY     74  27  17 N5        30.18F
Sandpoint      SUNNY     70  36  28 E5        30.16S
Bonners Ferry  FAIR      72  36  26 SW5       30.17R

...Southeast Washington and southern Idaho Panhandle...

CITY           SKY/WX    TMP DP  RH WIND       PRES   REMARKS
Walla Walla    SUNNY     79  37  22 SW5       30.16S
Pullman/Moscow SUNNY     72  32  23 VRB5      30.22S
Lewiston       SUNNY     79  31  17 NW8       30.16F
Lowell           N/A     68  41  37 CALM      30.16S
Grangeville    FAIR      66  34  30 N10       30.23S

...Columbia Basin...

CITY           SKY/WX    TMP DP  RH WIND       PRES   REMARKS
Ephrata        SUNNY     80  31  16 S8        30.15F
Moses Lake     SUNNY     80  32  17 S9        30.16F
Pasco          SUNNY     83  36  18 VRB7      30.15F
Richland       CLEAR     82  37  19 NE8       30.14S
Hermiston      SUNNY     82  33  17 NE10      30.14F
Pendleton      SUNNY     78  39  24 NE9       30.16F

...East Slopes Cascades...

CITY           SKY/WX    TMP DP  RH WIND       PRES   REMARKS
The Dalles     SUNNY     87  34  15 CALM      30.09F
Yakima         SUNNY     82  38  20 SE8       30.14F
Ellensburg     SUNNY     83  32  16 SW8       30.15F
Stampede Pass  SUNNY     64  37  36 VRB7      30.29S
Wenatchee      SUNNY     79  33  19 S8        30.13F
Omak           SUNNY     78  32  18 N9        30.16F
Chelan           N/A     79  37  22 MISG        N/A
Sunnyside      CLEAR     77  39  26 SE5       30.14F

...Southern British Columbia...

CITY           SKY/WX    TMP DP  RH WIND       PRES   REMARKS
Penticton      MOSUNNY   77  36  22 N12       30.17F
Castlegar      MOSUNNY   75  37  25 N10G17    30.15S
Cranbrook      MOSUNNY   68  32  26 N6        30.17S
Osoyoos          N/A     77  37  24 NW8         N/A
Creston          N/A     73  34  23 NW9         N/A

...Western Montana...

CITY           SKY/WX    TMP DP  RH WIND       PRES   REMARKS
Kalispell      CLOUDY    69  35  28 W3        30.16S
Libby            N/A     73  28  19 NW5       30.15
Missoula       SUNNY     71  31  22 N13       30.16S

...Neighboring Cities...

CITY           SKY/WX    TMP DP  RH WIND       PRES   REMARKS
Seattle        SUNNY     74  43  32 NW10      30.23F
Portland       SUNNY     81  45  28 N10G20    30.12F
Boise          SUNNY     81  28  14 NW23G32   30.05F
Great Falls    CLOUDY    61  37  41 NE13      30.23S
Calgary        MOSUNNY   61  34  36 N17G26    30.20R



USA.gov is the U.S. government's official web portal to all federal, state and local government web resources and services.